Regional Weather Roundup
Issued by NWS

Home | Current Version | Previous Version | Graphics & Text | Print | Product List | Glossary Off
Versions: 1 2 3 4 5 6 7 8 9 10 11 12 13 14 15 16 17 18 19 20 21 22 23 24 25 26 27 28 29 30 31 32 33 34 35 36 37 38 39 40 41 42 43 44 45 46 47 48 49 50

000
ASUS43 KMPX 020710
RWRMN
WEATHER ROUNDUP FOR MINNESOTA
NATIONAL WEATHER SERVICE TWIN CITIES/CHANHASSEN MN
200 AM CDT SUN AUG 02 2015


NOTE: "FAIR" INDICATES FEW OR NO CLOUDS BELOW 12,000 FEET WITH NO
SIGNIFICANT WEATHER AND/OR OBSTRUCTIONS TO VISIBILITY. N/A MEANS
CURRENT SKY AND/OR WEATHER CONDITIONS ARE NOT AVAILABLE.

MNZ060>063-068>070-020800-
   Twin Cities Metro

CITY           SKY/WX    TMP DP  RH WIND       PRES   REMARKS
TWIN CITIES    PTCLDY    75  65  70 SW13      29.73F
ST PAUL        PTCLDY    75  65  70 SW12G20   29.72F
CRYSTAL        CLEAR     77  64  64 SW15G21   29.71F
BLAINE         CLEAR     77  64  65 SW12      29.72F
LAKEVILLE      PTCLDY    72  64  78 SW6       29.75F
EDEN PRAIRIE   CLEAR     73  65  75 S12       29.73F
SOUTH ST PAUL  CLEAR     76  64  65 SW14      29.73F
LAKE ELMO      FAIR      73  66  78 SW9       29.74F
$$
MNZ001>005-007-008-013>017-022>024-027-028-020800-
   Northwest Minnesota

CITY           SKY/WX    TMP DP  RH WIND       PRES   REMARKS
BEMIDJI        MOCLDY    64  59  86 CALM      29.69S
HALLOCK        LGT RAIN  64  61  88 NW9       29.69S
ROSEAU         CLOUDY    63  57  82 SW6       29.69R
WARROAD        CLOUDY    63  57  82 W6        29.67F
THIEF RVR FALL MOCLDY    70  61  73 N6        29.70R
CROOKSTON      PTCLDY    66  63  88 N3G9      29.69R
FOSSTON        MOCLDY    61  59  94 CALM      29.68F
DETROIT LAKES  CLEAR     70  64  83 CALM      29.69S
MOORHEAD       PTCLDY    64  63  94 CALM      29.66F
PARK RAPIDS    CLEAR     63  60  90 NW5       29.67F
MAHNOMEN       FAIR      63  61  94 CALM      29.69R
$$
MNZ006-009>011-018-025>026-020800-
   North Central Minnesota

CITY           SKY/WX    TMP DP  RH WIND       PRES   REMARKS
BAUDETTE       CLOUDY    61  58  90 SW5       29.66F
FLAG ISLAND    MOCLDY    70  59  68 N7        29.66S
INTL FALLS     TSTM      63  60  90 W9        29.69S
WASKISH        LGT RAIN  63  57  82 N5        29.71R
BIG FORK       CLOUDY    61  57  88 CALM      29.70R
LONGVILLE      PTCLDY    63  61  94 CALM      29.66F
GRAND RAPIDS   CLOUDY    66  59  77 SW7       29.68F
CRANE LAKE     CLOUDY    61  57  88 SE1       29.66S
ORR            CLOUDY    64  55  72 CALM      29.64S
COOK           MOCLDY    64  57  77 W3        29.67F
WALKER         FAIR      66  62  88 NW6       29.69R
$$
MNZ012-019>021-037-020800-
   Northeast Minnesota

CITY           SKY/WX    TMP DP  RH WIND       PRES   REMARKS
DULUTH         PTCLDY    68  59  73 W12       29.68F
ELY            MOCLDY    61  54  77 SW3       29.66F
HIBBING        MOCLDY    58  55  90 CALM      29.68S
EVELETH        PTCLDY    63  55  77 NW3       29.69F
DULUTH HARBOR  CLEAR     66  63  88 SW3       29.65F
TWO HARBORS    PTCLDY    64  61  88 CALM      29.66R
SILVER BAY     PTCLDY    57  54  88 CALM      29.65R
GRAND MARAIS     N/A     46  43  89 SW6       29.63S
G MARAIS ARPRT PTCLDY    61  50  67 SW3       29.69R
$$
MNZ029>031-032-039>041-046>048-054>057-064-020800-
   West Central Minnesota

CITY           SKY/WX    TMP DP  RH WIND       PRES   REMARKS
FERGUS FALLS   CLEAR     68  66  94 W3        29.66R
WHEATON        CLEAR     66  63  88 S7        29.66F
MORRIS         CLEAR     66  64  94 S9        29.66F
ALEXANDRIA     CLEAR     71  64  78 S12       29.69F
ELBOW LAKE     FAIR      67  65  91 S10       29.63F
WADENA         CLEAR     66  64  94 S5        29.65F
GLENWOOD       CLEAR     66  63  88 S7        29.71F
APPLETON       CLEAR     70  63  78 S6        29.68F
BENSON         CLEAR     66  63  88 S6        29.70F
ORTONVILLE     CLEAR     66  63  88 S7        29.68F
MADISON        CLEAR     70  63  78 SW8       29.70F
WILLMAR        FAIR      68  64  88 CALM      29.73F
$$
MNZ033>034-036-042>043-049>051-058-059-020800-
   Central Minnesota

CITY           SKY/WX    TMP DP  RH WIND       PRES   REMARKS
ST CLOUD       CLEAR     70  65  84 SW7       29.70F
SAUK CENTRE    FAIR      65  64  94 S3        29.70F
PAYNESVILLE    CLEAR     67  63  86 SE8       29.72F
AITKIN         PTCLDY    68  63  83 S5        29.65F
PINE RIVER     CLEAR     61  61 100 CALM      29.70F
BRAINERD       CLEAR     66  63  90 CALM      29.67F
STAPLES        CLEAR     66  64  94 S3        29.66F
LONG PRAIRIE   FAIR      64  63  94 S6        29.70F
LITTLE FALLS   CLEAR     68  63  83 S3        29.69F
LITCHFIELD     CLEAR     70  66  88 S3        29.73F
BUFFALO        CLEAR     71  64  78 S6        29.73F
MAPLE LAKE     CLEAR     70  66  88 S5        29.73F
$$
MNZ037-044-045-052-053-020800-
   East Central Minnesota

CITY           SKY/WX    TMP DP  RH WIND       PRES   REMARKS
PRINCETON      PTCLDY    73  66  78 S5        29.71F
MORA           CLEAR     66  63  88 SW3       29.71F
CAMBRIDGE      PTCLDY    73  63  68 S5        29.69F
RUSH CITY      PTCLDY    71  65  81 SW7       29.70F
MOOSE LAKE     PTCLDY    61  59  94 SW3       29.67F
HINCKLEY       FAIR      64  63  94 CALM      29.69F
CLOQUET        PTCLDY    66  59  77 SW7       29.68F
MCGREGOR       PTCLDY    66  61  82 S6        29.67F
$$
MNZ071>073-080-081-089-090-097-098-020800-
   Southwest Minnesota

CITY           SKY/WX    TMP DP  RH WIND       PRES   REMARKS
MONTEVIDEO     CLEAR     70  61  73 W5        29.73F
GRANITE FALLS  CLEAR     71  64  80 SW7       29.73F
CANBY          CLEAR     71  62  73 SW7       29.74F
MARSHALL       CLEAR     73  61  64 SW15G22   29.76F
REDWOOD FALLS  CLEAR     71  66  84 SW16      29.72F
OLIVIA         CLEAR     68  63  83 SW8       29.72F
PIPESTONE      CLEAR     68  64  88 SW7       29.81F
WINDOM         PTCLDY    72  64  78 S10       29.80F
WORTHINGTON    CLEAR     70  63  78 SW13      29.83F
JACKSON        PTCLDY    72  64  78 SW13G18   29.83F
TRACY          CLEAR     72  66  83 SW15      29.77F
SLAYTON        CLEAR     69  65  89 SW14      29.81F
$$
MNZ065>067-074>077-082>085-091>093-020800-
   South Central Minnesota

CITY           SKY/WX    TMP DP  RH WIND       PRES   REMARKS
MANKATO        MOCLDY    73  63  68 SW13G18   29.76F
NEW ULM        PTCLDY    72  64  78 SW9       29.75F
ST JAMES       MOCLDY    73  66  78 S9        29.78F
FAIRMONT       MOCLDY    73  63  68 SW13      29.80F
GLENCOE        CLEAR     69  67  90 S5        29.73F
FARIBAULT      CLEAR     72  66  83 S7        29.78F
OWATONNA       CLEAR     70  64  83 S8        29.79F
WASECA         CLEAR     70  64  83 SW8       29.79F
ALBERT LEA     CLEAR     72  68  88 SW7       29.81F
$$
MNZ078>079-086>088-094>096-020800-
   Southeast Minnesota

CITY           SKY/WX    TMP DP  RH WIND       PRES   REMARKS
ROCHESTER      PTCLDY    71  68  90 SW15      29.82F
RED WING       MOCLDY    73  66  78 W5        29.75F
STANTON        PTCLDY    72  65  81 S7        29.75F
DODGE CENTER   PTCLDY    68  66  94 SW9       29.80F
WINONA         PTCLDY    73  66  78 CALM      29.78F
AUSTIN         CLEAR     70  66  88 SW7       29.82F
PRESTON        CLEAR     70  67  89 SW7       29.83F
$$
ABBREVIATIONS USED IN REMARKS
   TC - TEMPERATURES IN CELSIUS
  WCI - WIND CHILL INDEX
   HX - HEAT INDEX
  VSB - VISIBILITY
$$



USA.gov is the U.S. government's official web portal to all federal, state and local government web resources and services.